Regional Weather Roundup
Issued by NWS

Home | Current Version | Previous Version | Text Only | Print | Product List | Glossary Off
Versions: 1 2 3 4 5 6 7 8 9 10 11 12 13 14 15 16 17 18 19 20 21 22 23 24 25 26 27 28 29 30 31 32 33 34 35 36 37 38 39 40 41 42 43 44 45 46 47 48 49 50

000
ASUS43 KLSX 190707
RWRMO

WEATHER SUMMARY FOR MISSOURI
NATIONAL WEATHER SERVICE SPRINGFIELD MO
200 AM CDT SAT AUG 19 2017

NOTE: "FAIR" INDICATES FEW OR NO CLOUDS BELOW 12,000 FEET WITH NO
       SIGNIFICANT WEATHER AND/OR OBSTRUCTIONS TO VISIBILITY.
       CURRENT SKY AND/OR WEATHER CONDITIONS ARE NOT AVAILABLE FOR
       CHILLICOTHE AND FARMINGTON.

MOZ001>031-035>038-043-044-053-054-190800-
...NORTHERN AND WESTERN MISSOURI...

CITY           SKY/WX    TMP DP  RH WIND       PRES   REMARKS
KANSAS CTY INT CLEAR     69  67  93 W3        29.93F FOG
KANSAS C DTWN  CLEAR     73  71  93 CALM      29.91F
LEE`S SUMMIT   CLEAR     73  70  90 SW8       29.93F
ST JOSEPH      PTCLDY    63  63 100 CALM      29.93S FOG
CHILLICOTHE      N/A     65  65 100 CALM      29.93F
KIRKSVILLE     PTCLDY    66  65  96 W5        29.93S

$$
MOZ066>068-077>081-088>096-101>105-190800-
...SOUTHWEST MISSOURI...

CITY           SKY/WX    TMP DP  RH WIND       PRES   REMARKS
SPRINGFIELD    CLEAR     69  67  93 S5        29.99F
JOPLIN         PTCLDY    71  70  96 S5        29.98S
BRANSON        CLOUDY    70  68  94 CALM      30.01S

$$
MOZ032>034-039>042-045>050-055>058-069>072-190800-
...CENTRAL MISSOURI...

CITY           SKY/WX    TMP DP  RH WIND       PRES   REMARKS
COLUMBIA       CLOUDY    69  65  86 SW7       29.93F
JEFFERSON CITY CLOUDY    73  68  84 W9        29.94R
ROLLA          CLOUDY    70  69  97 S13       29.97F
SEDALIA        CLEAR     69  69 100 S8        29.95F
WHITEMAN AFB   CLEAR     68  68 100 S7        29.93F
WARRENSBURG    CLEAR     68  64  88 S6        29.93F
OSAGE BEACH    CLEAR     69  68  96 CALM      29.96F

$$
MOZ051-052-059>065-190800-
...EAST CENTRAL MISSOURI...

CITY           SKY/WX    TMP DP  RH WIND       PRES   REMARKS
ST LOUIS INTL  CLOUDY    73  68  84 W3        29.92F
SPIRIT OF STL  CLOUDY    70  69  97 CALM      29.91F
ST CHARLES     CLOUDY    71  67  87 SW7       29.90F

$$
MOZ072>076-082>087-097>100-106>115-190800-
...SOUTH CENTRAL AND SOUTHEAST MISSOURI...

CITY           SKY/WX    TMP DP  RH WIND       PRES   REMARKS
CAPE GIRARDEAU CLEAR     70  66  87 SW6       29.92F
FARMINGTON     CLOUDY    71  67  87 NW3       29.96S
POPLAR BLUFF   CLEAR     70  69  97 S3        29.93F
WEST PLAINS    CLEAR     69  67  93 SW3       30.01S

$$



USA.gov is the U.S. government's official web portal to all federal, state and local government web resources and services.